| time (UTC) | temp C | wind direction | speed KPH | gust KPH | rain 1hr cm | rain 24hr cm | rain mn cm | humidity % | barometer mb |
| 20260906212606 | 24 | 241 | 1.6 | 6.4 | 0.00 | 0.00 | 0.00 | 90 | 1018.4 |
| 20260906212102 | 24 | 241 | 6.4 | 11.3 | 0.00 | 0.00 | 0.00 | 90 | 1018.4 |
| 20260906211601 | 23 | 199 | 1.6 | 9.7 | 0.00 | 0.00 | 0.00 | 90 | 1018.4 |
| 20260906211057 | 23 | 241 | 3.2 | 9.7 | 0.00 | 0.00 | 0.00 | 91 | 1018.5 |
| 20260906210552 | 23 | 275 | 6.4 | 9.7 | 0.00 | 0.00 | 0.00 | 91 | 1018.6 |
| 20260906210047 | 23 | 149 | 3.2 | 9.7 | 0.00 | 0.00 | 0.00 | 91 | 1018.5 |
| 20260906205543 | 24 | 208 | 6.4 | 12.9 | 0.00 | 0.00 | 0.00 | 91 | 1018.2 |
| 20260906205039 | 24 | 235 | 3.2 | 9.7 | 0.00 | 0.00 | 0.00 | 90 | 1018.3 |
| 20260906204538 | 24 | 154 | 6.4 | 20.9 | 0.00 | 0.00 | 0.00 | 90 | 1018.1 |
| 20260906204032 | 24 | 221 | 8.0 | 11.3 | 0.00 | 0.00 | 0.00 | 89 | 1018.3 |
| 20260906203532 | 25 | 135 | 3.2 | 6.4 | 0.00 | 0.00 | 0.00 | 89 | 1018.1 |
| 20260906203027 | 25 | 219 | 3.2 | 11.3 | 0.00 | 0.00 | 0.00 | 89 | 1017.9 |
| 20260906202523 | 25 | 92 | 4.8 | 11.3 | 0.00 | 0.00 | 0.00 | 88 | 1018.0 |
| 20260906202019 | 25 | 255 | 8.0 | 14.5 | 0.00 | 0.00 | 0.00 | 88 | 1018.0 |
| 20260906201518 | 25 | 120 | 4.8 | 9.7 | 0.00 | 0.00 | 0.00 | 88 | 1018.2 |
| 20260906201018 | 25 | 118 | 3.2 | 6.4 | 0.00 | 0.00 | 0.00 | 88 | 1018.5 |
| 20260906200514 | 25 | 178 | 3.2 | 12.9 | 0.00 | 0.00 | 0.00 | 88 | 1018.5 |
| 20260906200009 | 25 | 253 | 8.0 | 17.7 | 0.00 | 0.00 | 0.00 | 88 | 1018.4 |
| 20260906195505 | 25 | 178 | 4.8 | 11.3 | 0.00 | 0.00 | 0.00 | 87 | 1018.7 |
| 20260906195001 | 25 | 156 | 3.2 | 9.7 | 0.00 | 0.00 | 0.00 | 86 | 1018.6 |
| 20260906194456 | 25 | 236 | 3.2 | 12.9 | 0.00 | 0.00 | 0.00 | 86 | 1018.4 |
| 20260906193952 | 25 | 244 | 3.2 | 17.7 | 0.00 | 0.00 | 0.00 | 86 | 1018.5 |
| 20260906193447 | 25 | 178 | 4.8 | 11.3 | 0.00 | 0.00 | 0.00 | 87 | 1018.7 |
| 20260906192943 | 25 | 136 | 8.0 | 16.1 | 0.00 | 0.00 | 0.00 | 87 | 1018.7 |
| 20260906192443 | 25 | 252 | 3.2 | 14.5 | 0.00 | 0.00 | 0.00 | 86 | 1018.6 |
| 20260906191942 | 25 | 94 | 6.4 | 16.1 | 0.00 | 0.00 | 0.00 | 85 | 1018.6 |
| 20260906191438 | 26 | 195 | 0.0 | 4.8 | 0.00 | 0.00 | 0.00 | 84 | 1018.5 |
| 20260906190937 | 26 | 224 | 6.4 | 11.3 | 0.00 | 0.00 | 0.00 | 84 | 1018.5 |
| 20260906190435 | 26 | 147 | 4.8 | 9.7 | 0.00 | 0.00 | 0.00 | 83 | 1018.4 |
| 20260906185931 | 27 | 258 | 4.8 | 11.3 | 0.00 | 0.00 | 0.00 | 82 | 1018.4 |
| 20260906185430 | 27 | 130 | 4.8 | 6.4 | 0.00 | 0.00 | 0.00 | 82 | 1018.3 |
| 20260906184929 | 27 | 237 | 3.2 | 16.1 | 0.00 | 0.00 | 0.00 | 82 | 1018.2 |
| 20260906184424 | 27 | 224 | 4.8 | 11.3 | 0.00 | 0.00 | 0.00 | 81 | 1018.3 |
| 20260906183919 | 27 | 247 | 8.0 | 20.9 | 0.00 | 0.00 | 0.00 | 83 | 1018.1 |
| 20260906183416 | 26 | 221 | 3.2 | 12.9 | 0.00 | 0.00 | 0.00 | 84 | 1018.2 |
| 20260906182910 | 26 | 155 | 6.4 | 16.1 | 0.00 | 0.00 | 0.00 | 85 | 1018.4 |
| 20260906182406 | 26 | 148 | 1.6 | 11.3 | 0.00 | 0.00 | 0.00 | 86 | 1018.5 |
| 20260906181901 | 26 | 116 | 3.2 | 4.8 | 0.00 | 0.00 | 0.00 | 84 | 1018.4 |
| 20260906181357 | 26 | 89 | 6.4 | 11.3 | 0.00 | 0.00 | 0.00 | 85 | 1018.5 |
| 20260906180853 | 26 | 229 | 8.0 | 12.9 | 0.00 | 0.00 | 0.00 | 85 | 1018.5 |
| 20260906180348 | 26 | 99 | 6.4 | 9.7 | 0.00 | 0.00 | 0.00 | 84 | 1018.6 |
| 20260906175844 | 26 | 153 | 6.4 | 11.3 | 0.00 | 0.00 | 0.00 | 84 | 1018.6 |
| 20260906175340 | 26 | 182 | 8.0 | 11.3 | 0.00 | 0.00 | 0.00 | 85 | 1018.5 |
| 20260906174839 | 26 | 142 | 3.2 | 9.7 | 0.00 | 0.00 | 0.00 | 86 | 1018.6 |
| 20260906174339 | 26 | 243 | 3.2 | 9.7 | 0.00 | 0.00 | 0.00 | 86 | 1018.7 |
| 20260906173834 | 25 | 81 | 3.2 | 11.3 | 0.00 | 0.00 | 0.00 | 88 | 1018.7 |
| 20260906173330 | 26 | 140 | 1.6 | 6.4 | 0.00 | 0.00 | 0.00 | 87 | 1018.6 |
| 20260906172828 | 25 | 118 | 3.2 | 9.7 | 0.00 | 0.00 | 0.00 | 87 | 1018.4 |
| 20260906172325 | 25 | 69 | 9.7 | 12.9 | 0.00 | 0.00 | 0.00 | 89 | 1018.5 |
| 20260906171819 | 25 | 114 | 8.0 | 11.3 | 0.00 | 0.00 | 0.00 | 88 | 1018.6 |
| 20260906171314 | 25 | 216 | 4.8 | 14.5 | 0.00 | 0.00 | 0.00 | 89 | 1018.6 |
| 20260906170810 | 25 | 185 | 9.7 | 12.9 | 0.00 | 0.00 | 0.00 | 89 | 1018.8 |
| 20260906170306 | 24 | 69 | 6.4 | 9.7 | 0.00 | 0.00 | 0.00 | 90 | 1018.9 |
| 20260906165802 | 24 | 114 | 9.7 | 11.3 | 0.00 | 0.00 | 0.00 | 90 | 1019.2 |
| 20260906165302 | 24 | 141 | 3.2 | 14.5 | 0.00 | 0.00 | 0.00 | 90 | 1019.1 |
| 20260906164801 | 24 | 166 | 4.8 | 6.4 | 0.00 | 0.00 | 0.00 | 90 | 1019.2 |
| 20260906164256 | 23 | 102 | 6.4 | 12.9 | 0.00 | 0.00 | 0.00 | 91 | 1019.3 |
| 20260906163753 | 23 | 118 | 3.2 | 9.7 | 0.00 | 0.00 | 0.00 | 91 | 1019.5 |
| 20260906163249 | 23 | 108 | 4.8 | 11.3 | 0.00 | 0.00 | 0.00 | 91 | 1019.5 |
| 20260906162746 | 23 | 107 | 4.8 | 9.7 | 0.00 | 0.00 | 0.00 | 91 | 1019.6 |
| 20260906162240 | 23 | 185 | 3.2 | 4.8 | 0.00 | 0.00 | 0.00 | 92 | 1019.6 |
| 20260906161740 | 23 | 92 | 3.2 | 12.9 | 0.00 | 0.00 | 0.00 | 92 | 1019.5 |
| 20260906161239 | 23 | 58 | 3.2 | 4.8 | 0.00 | 0.00 | 0.00 | 92 | 1019.5 |
| 20260906160738 | 23 | 122 | 3.2 | 11.3 | 0.00 | 0.00 | 0.00 | 93 | 1019.5 |
| 20260906160238 | 23 | 110 | 9.7 | 12.9 | 0.00 | 0.00 | 0.00 | 93 | 1019.7 |
| 20260906155735 | 23 | 127 | 4.8 | 4.8 | 0.00 | 0.00 | 0.00 | 93 | 1019.5 |
| 20260906155230 | 23 | 176 | 1.6 | 6.4 | 0.00 | 0.00 | 0.00 | 93 | 1019.5 |
| 20260906154726 | 23 | 107 | 6.4 | 6.4 | 0.00 | 0.00 | 0.00 | 93 | 1019.6 |
| 20260906154221 | 22 | 119 | 3.2 | 6.4 | 0.00 | 0.00 | 0.00 | 94 | 1019.5 |
| 20260906153719 | 22 | 73 | 3.2 | 6.4 | 0.00 | 0.00 | 0.00 | 94 | 1019.6 |
| 20260906153214 | 22 | 111 | 4.8 | 12.9 | 0.00 | 0.00 | 0.00 | 94 | 1019.5 |
| 20260906152709 | 22 | 94 | 6.4 | 11.3 | 0.00 | 0.00 | 0.00 | 94 | 1019.7 |
| 20260906152208 | 22 | 75 | 8.0 | 11.3 | 0.00 | 0.00 | 0.00 | 94 | 1019.5 |
| 20260906151703 | 22 | 58 | 9.7 | 11.3 | 0.00 | 0.00 | 0.00 | 94 | 1019.6 |
| 20260906151159 | 22 | 189 | 3.2 | 4.8 | 0.00 | 0.00 | 0.00 | 94 | 1019.5 |
| 20260906150654 | 22 | 105 | 4.8 | 6.4 | 0.00 | 0.00 | 0.00 | 94 | 1019.9 |
| 20260906150149 | 22 | 60 | 8.0 | 9.7 | 0.00 | 0.00 | 0.00 | 94 | 1019.5 |
| 20260906145643 | 22 | 118 | 3.2 | 9.7 | 0.00 | 0.00 | 0.00 | 95 | 1019.6 |
| 20260906145142 | 22 | 114 | 8.0 | 11.3 | 0.00 | 0.00 | 0.00 | 95 | 1019.5 |
| 20260906144637 | 22 | 195 | 3.2 | 9.7 | 0.00 | 0.00 | 0.00 | 95 | 1019.4 |
| 20260906144132 | 22 | 112 | 3.2 | 4.8 | 0.00 | 0.00 | 0.00 | 95 | 1019.4 |
| 20260906143632 | 22 | 140 | 4.8 | 6.4 | 0.00 | 0.00 | 0.00 | 96 | 1019.6 |
| 20260906143130 | 22 | 122 | 8.0 | 11.3 | 0.00 | 0.00 | 0.00 | 95 | 1019.5 |
| 20260906142628 | 22 | 155 | 1.6 | 3.2 | 0.00 | 0.00 | 0.00 | 95 | 1019.5 |
| 20260906142124 | 22 | 161 | 1.6 | 9.7 | 0.00 | 0.00 | 0.00 | 96 | 1019.6 |
| 20260906141622 | 22 | 205 | 3.2 | 9.7 | 0.00 | 0.00 | 0.00 | 96 | 1019.5 |
| 20260906141118 | 22 | 109 | 1.6 | 11.3 | 0.00 | 0.00 | 0.00 | 96 | 1019.4 |
| 20260906140611 | 22 | 116 | 4.8 | 9.7 | 0.00 | 0.00 | 0.00 | 96 | 1019.4 |
| 20260906140107 | 22 | 73 | 4.8 | 12.9 | 0.00 | 0.00 | 0.00 | 96 | 1019.5 |
| 20260906135603 | 22 | 124 | 3.2 | 9.7 | 0.00 | 0.00 | 0.00 | 97 | 1019.7 |
| 20260906135059 | 22 | 91 | 3.2 | 6.4 | 0.00 | 0.00 | 0.00 | 97 | 1019.6 |
| 20260906134555 | 22 | 155 | 3.2 | 4.8 | 0.00 | 0.00 | 0.00 | 97 | 1019.7 |
| 20260906134054 | 21 | 57 | 3.2 | 4.8 | 0.00 | 0.00 | 0.00 | 97 | 1019.9 |
| 20260906133550 | 21 | 335 | 0.0 | 6.4 | 0.00 | 0.00 | 0.00 | 98 | 1019.6 |
| 20260906133045 | 21 | 27 | 3.2 | 6.4 | 0.00 | 0.00 | 0.00 | 98 | 1019.2 |
| 20260906132540 | 21 | 87 | 3.2 | 4.8 | 0.00 | 0.00 | 0.00 | 98 | 1019.2 |
| 20260906132036 | 21 | 174 | 3.2 | 9.7 | 0.00 | 0.00 | 0.00 | 98 | 1019.1 |
| 20260906131532 | 21 | 71 | 1.6 | 3.2 | 0.00 | 0.00 | 0.00 | 98 | 1019.4 |
| 20260906131027 | 21 | 181 | 4.8 | 4.8 | 0.00 | 0.00 | 0.00 | 98 | 1019.0 |
| 20260906130526 | 21 | 28 | 4.8 | 6.4 | 0.00 | 0.00 | 0.00 | 98 | 1019.3 |
| 20260906130021 | 21 | 236 | 3.2 | 11.3 | 0.00 | 0.00 | 0.00 | 98 | 1019.1 |
| 20260906125518 | 21 | 158 | 1.6 | 4.8 | 0.00 | 0.00 | 0.00 | 99 | 1019.1 |
| 20260906125013 | 21 | 200 | 1.6 | 3.2 | 0.00 | 0.00 | 0.00 | 99 | 1019.2 |
| 20260906124509 | 21 | 75 | 1.6 | 3.2 | 0.00 | 0.00 | 0.00 | 99 | 1019.2 |
| 20260906124003 | 21 | 64 | 3.2 | 4.8 | 0.00 | 0.00 | 0.00 | 99 | 1019.0 |
| 20260906123456 | 21 | 83 | 1.6 | 4.8 | 0.00 | 0.00 | 0.00 | 99 | 1018.9 |
| 20260906122950 | 21 | 203 | 1.6 | 11.3 | 0.00 | 0.00 | 0.00 | 99 | 1018.9 |
| 20260906122446 | 21 | 120 | 0.0 | 1.6 | 0.00 | 0.00 | 0.00 | 99 | 1018.7 |
| 20260906121942 | 21 | 170 | 0.0 | 6.4 | 0.00 | 0.00 | 0.00 | 99 | 1018.8 |
| 20260906121438 | 21 | 82 | 1.6 | 1.6 | 0.00 | 0.00 | 0.00 | 99 | 1018.8 |
| 20260906120935 | 21 | 90 | 4.8 | 4.8 | 0.00 | 0.00 | 0.00 | 99 | 1018.9 |
| 20260906120430 | 21 | 195 | 0.0 | 4.8 | 0.00 | 0.00 | 0.00 | 99 | 1018.7 |
| 20260906115925 | 21 | 174 | 1.6 | 4.8 | 0.00 | 0.00 | 0.00 | 99 | 1018.6 |
| 20260906115420 | 21 | 122 | 0.0 | 1.6 | 0.00 | 0.00 | 0.00 | 99 | 1018.9 |
| 20260906114915 | 21 | 347 | 1.6 | 6.4 | 0.00 | 0.00 | 0.00 | 99 | 1019.0 |
| 20260906114410 | 20 | 172 | 0.0 | 3.2 | 0.00 | 0.00 | 0.00 | 99 | 1018.9 |
| 20260906113906 | 20 | 120 | 1.6 | 4.8 | 0.00 | 0.00 | 0.00 | 99 | 1019.0 |
| 20260906113404 | 20 | 92 | 6.4 | 6.4 | 0.00 | 0.00 | 0.00 | 99 | 1018.9 |
| 20260906112900 | 20 | 86 | 3.2 | 3.2 | 0.00 | 0.00 | 0.00 | 99 | 1018.8 |
| 20260906112355 | 20 | 115 | 3.2 | 3.2 | 0.00 | 0.00 | 0.00 | 99 | 1018.7 |
| 20260906111850 | 20 | 195 | 0.0 | 4.8 | 0.00 | 0.00 | 0.00 | 99 | 1018.8 |
| 20260906111349 | 20 | 211 | 3.2 | 6.4 | 0.00 | 0.00 | 0.00 | 99 | 1019.0 |
| 20260906110844 | 20 | 123 | 3.2 | 4.8 | 0.00 | 0.00 | 0.00 | 99 | 1018.9 |
| 20260906110340 | 20 | 181 | 1.6 | 4.8 | 0.00 | 0.00 | 0.00 | 99 | 1018.8 |
| 20260906105839 | 20 | 113 | 3.2 | 4.8 | 0.00 | 0.00 | 0.00 | 99 | 1019.1 |
| 20260906105335 | 20 | 75 | 1.6 | 6.4 | 0.00 | 0.00 | 0.00 | 99 | 1019.0 |
| 20260906104831 | 20 | 82 | 1.6 | 3.2 | 0.00 | 0.00 | 0.00 | 99 | 1019.1 |
| 20260906104329 | 20 | 93 | 4.8 | 6.4 | 0.00 | 0.00 | 0.00 | 99 | 1018.7 |
| 20260906103828 | 20 | 121 | 1.6 | 9.7 | 0.00 | 0.00 | 0.00 | 99 | 1018.9 |
| 20260906103326 | 20 | 98 | 4.8 | 6.4 | 0.00 | 0.00 | 0.00 | 99 | 1018.9 |
| 20260906102823 | 20 | 48 | 3.2 | 4.8 | 0.00 | 0.00 | 0.00 | 99 | 1019.0 |
| 20260906102321 | 20 | 234 | 0.0 | 4.8 | 0.00 | 0.00 | 0.00 | 99 | 1019.0 |
| 20260906101817 | 20 | 181 | 0.0 | 4.8 | 0.00 | 0.00 | 0.00 | 99 | 1019.1 |
| 20260906101312 | 20 | 91 | 4.8 | 6.4 | 0.00 | 0.00 | 0.00 | 99 | 1019.2 |
| 20260906100808 | 20 | 71 | 3.2 | 9.7 | 0.00 | 0.00 | 0.00 | 99 | 1019.0 |
| 20260906100306 | 20 | 112 | 3.2 | 4.8 | 0.00 | 0.00 | 0.00 | 99 | 1018.9 |
| 20260906095801 | 20 | 169 | 0.0 | 3.2 | 0.00 | 0.00 | 0.00 | 99 | 1018.9 |
| 20260906095252 | 20 | 246 | 1.6 | 4.8 | 0.00 | 0.00 | 0.00 | 99 | 1018.9 |
| 20260906094750 | 20 | 246 | 4.8 | 6.4 | 0.00 | 0.00 | 0.00 | 99 | 1018.8 |
| 20260906094246 | 20 | 228 | 1.6 | 3.2 | 0.00 | 0.00 | 0.00 | 99 | 1018.7 |
| 20260906093742 | 20 | 179 | 0.0 | 3.2 | 0.00 | 0.00 | 0.00 | 99 | 1018.6 |
| 20260906093237 | 20 | 229 | 3.2 | 3.2 | 0.00 | 0.00 | 0.00 | 99 | 1018.8 |
| 20260906092733 | 20 | 192 | 1.6 | 4.8 | 0.00 | 0.00 | 0.00 | 99 | 1018.5 |
| 20260906092233 | 20 | 27 | 1.6 | 1.6 | 0.00 | 0.00 | 0.00 | 99 | 1018.5 |
| 20260906091728 | 20 | 109 | 6.4 | 11.3 | 0.00 | 0.00 | 0.00 | 99 | 1018.4 |
| 20260906091224 | 20 | 120 | 3.2 | 6.4 | 0.00 | 0.00 | 0.00 | 99 | 1018.2 |
| 20260906090721 | 20 | 139 | 3.2 | 6.4 | 0.00 | 0.00 | 0.00 | 99 | 1018.4 |
| 20260906090219 | 20 | 127 | 1.6 | 3.2 | 0.00 | 0.00 | 0.00 | 99 | 1018.4 |
| 20260906085719 | 20 | 107 | 3.2 | 4.8 | 0.00 | 0.00 | 0.00 | 99 | 1018.6 |
| 20260906085217 | 20 | 209 | 1.6 | 9.7 | 0.00 | 0.00 | 0.00 | 99 | 1018.5 |
| 20260906084712 | 20 | 158 | 3.2 | 4.8 | 0.00 | 0.00 | 0.00 | 99 | 1018.5 |
| 20260906084207 | 20 | 99 | 6.4 | 12.9 | 0.00 | 0.00 | 0.00 | 99 | 1018.2 |
| 20260906083701 | 20 | 30 | 3.2 | 4.8 | 0.00 | 0.00 | 0.00 | 99 | 1018.2 |
| 20260906083156 | 21 | 84 | 3.2 | 6.4 | 0.00 | 0.00 | 0.00 | 98 | 1018.0 |
| 20260906082652 | 21 | 101 | 6.4 | 9.7 | 0.00 | 0.00 | 0.00 | 98 | 1018.2 |
| 20260906082148 | 21 | 62 | 4.8 | 14.5 | 0.00 | 0.00 | 0.00 | 98 | 1018.1 |
| 20260906081643 | 21 | 94 | 4.8 | 9.7 | 0.00 | 0.00 | 0.00 | 98 | 1017.9 |
| 20260906081138 | 20 | 104 | 8.0 | 11.3 | 0.00 | 0.00 | 0.00 | 99 | 1017.9 |
| 20260906080635 | 21 | 71 | 3.2 | 6.4 | 0.00 | 0.00 | 0.00 | 98 | 1017.9 |
| 20260906080130 | 20 | 84 | 3.2 | 6.4 | 0.00 | 0.00 | 0.00 | 98 | 1018.1 |
| 20260906075624 | 20 | 96 | 4.8 | 12.9 | 0.00 | 0.00 | 0.00 | 98 | 1018.1 |
| 20260906075119 | 20 | 92 | 4.8 | 6.4 | 0.00 | 0.00 | 0.00 | 98 | 1018.2 |
| 20260906074614 | 20 | 119 | 3.2 | 9.7 | 0.00 | 0.00 | 0.00 | 98 | 1018.2 |
| 20260906074113 | 20 | 79 | 4.8 | 9.7 | 0.00 | 0.00 | 0.00 | 98 | 1018.3 |
| 20260906073608 | 21 | 103 | 4.8 | 6.4 | 0.00 | 0.00 | 0.00 | 97 | 1018.2 |
| 20260906073104 | 21 | 132 | 6.4 | 11.3 | 0.00 | 0.00 | 0.00 | 97 | 1018.2 |
| 20260906072604 | 21 | 157 | 4.8 | 6.4 | 0.00 | 0.00 | 0.00 | 97 | 1018.3 |
| 20260906072100 | 21 | 71 | 3.2 | 9.7 | 0.00 | 0.00 | 0.00 | 97 | 1018.4 |
| 20260906071556 | 21 | 98 | 6.4 | 6.4 | 0.00 | 0.00 | 0.00 | 97 | 1018.5 |
| 20260906071051 | 21 | 113 | 3.2 | 9.7 | 0.00 | 0.00 | 0.00 | 96 | 1018.7 |
| 20260906070548 | 21 | 86 | 3.2 | 9.7 | 0.00 | 0.00 | 0.00 | 96 | 1018.5 |
| 20260906070043 | 21 | 109 | 3.2 | 6.4 | 0.00 | 0.00 | 0.00 | 96 | 1018.7 |
| 20260906065543 | 21 | 91 | 3.2 | 9.7 | 0.00 | 0.00 | 0.00 | 96 | 1018.4 |
| 20260906065039 | 21 | 58 | 1.6 | 6.4 | 0.00 | 0.00 | 0.00 | 96 | 1018.6 |
| 20260906064534 | 21 | 121 | 4.8 | 6.4 | 0.00 | 0.00 | 0.00 | 96 | 1018.8 |
| 20260906064028 | 21 | 111 | 3.2 | 6.4 | 0.00 | 0.00 | 0.00 | 95 | 1018.7 |
| 20260906063524 | 21 | 108 | 3.2 | 9.7 | 0.00 | 0.00 | 0.00 | 95 | 1019.0 |
| 20260906063020 | 21 | 110 | 3.2 | 4.8 | 0.00 | 0.00 | 0.00 | 95 | 1018.9 |
| 20260906062515 | 21 | 82 | 3.2 | 6.4 | 0.00 | 0.00 | 0.00 | 95 | 1019.0 |
| 20260906062010 | 21 | 117 | 3.2 | 6.4 | 0.00 | 0.00 | 0.00 | 94 | 1018.9 |
| 20260906061505 | 21 | 93 | 3.2 | 4.8 | 0.00 | 0.00 | 0.00 | 94 | 1019.0 |
| 20260906060959 | 21 | 108 | 3.2 | 4.8 | 0.00 | 0.00 | 0.00 | 94 | 1019.2 |
| 20260906060456 | 21 | 112 | 3.2 | 4.8 | 0.00 | 0.00 | 0.00 | 94 | 1019.1 |
| 20260906055953 | 21 | 84 | 3.2 | 4.8 | 0.00 | 0.00 | 0.00 | 94 | 1019.0 |
| 20260906055449 | 21 | 149 | 4.8 | 9.7 | 0.00 | 0.00 | 0.00 | 94 | 1019.1 |
| 20260906054944 | 21 | 75 | 4.8 | 4.8 | 0.00 | 0.00 | 0.00 | 94 | 1018.9 |
| 20260906054443 | 21 | 60 | 4.8 | 9.7 | 0.00 | 0.00 | 0.00 | 94 | 1019.0 |
| 20260906053939 | 21 | 125 | 1.6 | 6.4 | 0.00 | 0.00 | 0.00 | 93 | 1019.0 |
| 20260906053436 | 21 | 149 | 6.4 | 12.9 | 0.00 | 0.00 | 0.00 | 93 | 1018.9 |
| 20260906052931 | 21 | 99 | 9.7 | 12.9 | 0.00 | 0.00 | 0.00 | 94 | 1019.0 |
| 20260906052427 | 21 | 117 | 3.2 | 4.8 | 0.00 | 0.00 | 0.00 | 93 | 1019.1 |
| 20260906051923 | 21 | 109 | 3.2 | 6.4 | 0.00 | 0.00 | 0.00 | 93 | 1019.3 |
| 20260906051418 | 21 | 90 | 1.6 | 6.4 | 0.00 | 0.00 | 0.00 | 93 | 1019.3 |
| 20260906050914 | 21 | 129 | 1.6 | 4.8 | 0.00 | 0.00 | 0.00 | 93 | 1019.2 |
| 20260906050408 | 21 | 107 | 4.8 | 6.4 | 0.00 | 0.00 | 0.00 | 93 | 1019.2 |
| 20260906045908 | 21 | 112 | 3.2 | 11.3 | 0.00 | 0.00 | 0.00 | 93 | 1019.3 |
| 20260906045406 | 21 | 102 | 4.8 | 6.4 | 0.00 | 0.00 | 0.00 | 93 | 1019.2 |
| 20260906044903 | 21 | 165 | 1.6 | 6.4 | 0.00 | 0.00 | 0.00 | 92 | 1019.1 |
| 20260906044402 | 21 | 103 | 3.2 | 6.4 | 0.00 | 0.00 | 0.00 | 92 | 1019.1 |
| 20260906043858 | 21 | 95 | 1.6 | 4.8 | 0.00 | 0.00 | 0.00 | 92 | 1019.3 |
| 20260906043354 | 21 | 88 | 3.2 | 4.8 | 0.00 | 0.00 | 0.00 | 92 | 1019.3 |
| 20260906042849 | 21 | 100 | 6.4 | 12.9 | 0.00 | 0.00 | 0.00 | 91 | 1019.1 |
| 20260906042348 | 21 | 72 | 4.8 | 6.4 | 0.00 | 0.00 | 0.00 | 91 | 1019.0 |
| 20260906041843 | 21 | 55 | 6.4 | 9.7 | 0.00 | 0.00 | 0.00 | 91 | 1019.1 |
| 20260906041339 | 21 | 190 | 1.6 | 6.4 | 0.00 | 0.00 | 0.00 | 91 | 1019.1 |
| 20260906040834 | 21 | 160 | 1.6 | 6.4 | 0.00 | 0.00 | 0.00 | 91 | 1019.1 |
| 20260906040329 | 21 | 154 | 1.6 | 6.4 | 0.00 | 0.00 | 0.00 | 91 | 1019.0 |
| 20260906035824 | 21 | 80 | 6.4 | 9.7 | 0.00 | 0.00 | 0.00 | 90 | 1019.0 |
| 20260906035325 | 22 | 144 | 1.6 | 4.8 | 0.00 | 0.00 | 0.00 | 89 | 1018.9 |
| 20260906034820 | 22 | 97 | 6.4 | 11.3 | 0.00 | 0.00 | 0.00 | 89 | 1018.9 |
| 20260906034315 | 22 | 97 | 6.4 | 14.5 | 0.00 | 0.00 | 0.00 | 88 | 1018.9 |
| 20260906033811 | 22 | 95 | 8.0 | 12.9 | 0.00 | 0.00 | 0.00 | 88 | 1018.8 |
| 20260906033310 | 22 | 163 | 0.0 | 4.8 | 0.00 | 0.00 | 0.00 | 88 | 1018.8 |
| 20260906032807 | 22 | 109 | 9.7 | 12.9 | 0.00 | 0.00 | 0.00 | 88 | 1019.0 |
| 20260906032305 | 22 | 96 | 3.2 | 9.7 | 0.00 | 0.00 | 0.00 | 87 | 1019.0 |
| 20260906031757 | 22 | 90 | 3.2 | 6.4 | 0.00 | 0.00 | 0.00 | 87 | 1019.1 |
| 20260906031253 | 22 | 123 | 3.2 | 6.4 | 0.00 | 0.00 | 0.00 | 87 | 1018.9 |
| 20260906030752 | 22 | 108 | 4.8 | 11.3 | 0.00 | 0.00 | 0.00 | 87 | 1018.8 |
| 20260906030248 | 23 | 155 | 3.2 | 9.7 | 0.00 | 0.00 | 0.00 | 86 | 1018.8 |
| 20260906025747 | 22 | 97 | 8.0 | 11.3 | 0.00 | 0.00 | 0.00 | 86 | 1018.8 |
| 20260906025241 | 23 | 81 | 4.8 | 6.4 | 0.00 | 0.00 | 0.00 | 86 | 1018.7 |
| 20260906024741 | 23 | 63 | 4.8 | 6.4 | 0.00 | 0.00 | 0.00 | 86 | 1018.6 |
| 20260906024239 | 23 | 124 | 1.6 | 9.7 | 0.00 | 0.00 | 0.00 | 85 | 1018.9 |
| 20260906023735 | 23 | 69 | 4.8 | 6.4 | 0.00 | 0.00 | 0.00 | 85 | 1018.8 |
| 20260906023230 | 23 | 87 | 6.4 | 12.9 | 0.00 | 0.00 | 0.00 | 84 | 1018.7 |
| 20260906022726 | 23 | 81 | 4.8 | 11.3 | 0.00 | 0.00 | 0.00 | 84 | 1018.5 |
| 20260906022221 | 23 | 84 | 3.2 | 14.5 | 0.00 | 0.00 | 0.00 | 84 | 1018.8 |
| 20260906021718 | 23 | 131 | 8.0 | 9.7 | 0.00 | 0.00 | 0.00 | 84 | 1018.7 |
| 20260906021216 | 23 | 88 | 3.2 | 3.2 | 0.00 | 0.00 | 0.00 | 84 | 1018.7 |
| 20260906020711 | 23 | 147 | 4.8 | 6.4 | 0.00 | 0.00 | 0.00 | 84 | 1018.9 |
| 20260906020206 | 23 | 77 | 1.6 | 4.8 | 0.00 | 0.00 | 0.00 | 83 | 1018.7 |
| 20260906015705 | 23 | 147 | 1.6 | 4.8 | 0.00 | 0.00 | 0.00 | 84 | 1018.5 |
| 20260906015158 | 23 | 76 | 3.2 | 3.2 | 0.00 | 0.00 | 0.00 | 84 | 1018.4 |
| 20260906014653 | 23 | 128 | 0.0 | 3.2 | 0.00 | 0.00 | 0.00 | 83 | 1018.4 |
| 20260906014149 | 23 | 98 | 3.2 | 4.8 | 0.00 | 0.00 | 0.00 | 84 | 1018.4 |
| 20260906013645 | 23 | 162 | 0.0 | 0.0 | 0.00 | 0.00 | 0.00 | 84 | 1018.6 |
| 20260906013140 | 23 | 159 | 0.0 | 1.6 | 0.00 | 0.00 | 0.00 | 83 | 1018.6 |
| 20260906012639 | 23 | 144 | 0.0 | 1.6 | 0.00 | 0.00 | 0.00 | 82 | 1018.5 |
| 20260906012134 | 24 | 176 | 0.0 | 1.6 | 0.00 | 0.00 | 0.00 | 81 | 1018.5 |
| 20260906011630 | 24 | 107 | 0.0 | 3.2 | 0.00 | 0.00 | 0.00 | 81 | 1018.1 |
| 20260906011125 | 25 | 137 | 1.6 | 3.2 | 0.00 | 0.00 | 0.00 | 80 | 1018.2 |
| 20260906010620 | 25 | 104 | 1.6 | 1.6 | 0.00 | 0.00 | 0.00 | 80 | 1018.2 |
| 20260906010116 | 25 | 139 | 1.6 | 3.2 | 0.00 | 0.00 | 0.00 | 79 | 1018.4 |
| 20260906005615 | 25 | 83 | 1.6 | 3.2 | 0.00 | 0.00 | 0.00 | 79 | 1018.2 |
| 20260906005114 | 25 | 98 | 3.2 | 4.8 | 0.00 | 0.00 | 0.00 | 78 | 1018.1 |
| 20260906004608 | 25 | 133 | 3.2 | 3.2 | 0.00 | 0.00 | 0.00 | 78 | 1017.8 |
| 20260906004103 | 25 | 135 | 0.0 | 1.6 | 0.00 | 0.00 | 0.00 | 77 | 1017.7 |
| 20260906003559 | 26 | 90 | 1.6 | 3.2 | 0.00 | 0.00 | 0.00 | 77 | 1017.7 |
| 20260906003055 | 26 | 70 | 3.2 | 4.8 | 0.00 | 0.00 | 0.00 | 77 | 1017.4 |
| 20260906002554 | 26 | 94 | 1.6 | 16.1 | 0.00 | 0.00 | 0.00 | 76 | 1017.4 |
| 20260906002049 | 26 | 147 | 1.6 | 3.2 | 0.00 | 0.00 | 0.00 | 76 | 1017.0 |
| 20260906001544 | 26 | 183 | 3.2 | 6.4 | 0.00 | 0.00 | 0.00 | 75 | 1016.9 |
| 20260906001039 | 27 | 169 | 1.6 | 14.5 | 0.00 | 0.00 | 0.00 | 74 | 1016.9 |
| 20260906000535 | 27 | 74 | 1.6 | 6.4 | 0.00 | 0.00 | 0.00 | 74 | 1016.7 |
| 20260906000030 | 27 | 126 | 1.6 | 11.3 | 0.00 | 0.00 | 0.00 | 73 | 1016.5 |
| 20260905235524 | 27 | 100 | 3.2 | 6.4 | 0.00 | 0.00 | 0.00 | 73 | 1016.6 |
| 20260905235019 | 27 | 235 | 4.8 | 9.7 | 0.00 | 0.00 | 0.00 | 72 | 1016.4 |
| 20260905234515 | 27 | 214 | 3.2 | 12.9 | 0.00 | 0.00 | 0.00 | 73 | 1016.5 |
| 20260905234014 | 27 | 82 | 8.0 | 12.9 | 0.00 | 0.00 | 0.00 | 72 | 1016.6 |
| 20260905233509 | 27 | 135 | 9.7 | 14.5 | 0.00 | 0.00 | 0.00 | 72 | 1016.4 |
| 20260905233009 | 27 | 97 | 3.2 | 4.8 | 0.00 | 0.00 | 0.00 | 71 | 1016.3 |
| 20260905232505 | 27 | 88 | 4.8 | 17.7 | 0.00 | 0.00 | 0.00 | 71 | 1016.5 |
| 20260905232000 | 27 | 122 | 6.4 | 14.5 | 0.00 | 0.00 | 0.00 | 71 | 1016.4 |
| 20260905231455 | 28 | 180 | 6.4 | 9.7 | 0.00 | 0.00 | 0.00 | 71 | 1016.1 |
| 20260905230952 | 28 | 107 | 9.7 | 12.9 | 0.00 | 0.00 | 0.00 | 71 | 1016.2 |
| 20260905230450 | 28 | 92 | 3.2 | 12.9 | 0.00 | 0.00 | 0.00 | 70 | 1016.2 |
| 20260905225948 | 28 | 89 | 4.8 | 16.1 | 0.00 | 0.00 | 0.00 | 70 | 1016.2 |
| 20260905225444 | 28 | 93 | 9.7 | 14.5 | 0.00 | 0.00 | 0.00 | 70 | 1016.3 |
| 20260905224939 | 28 | 83 | 8.0 | 24.1 | 0.00 | 0.00 | 0.00 | 70 | 1016.2 |
| 20260905224434 | 28 | 75 | 3.2 | 9.7 | 0.00 | 0.00 | 0.00 | 71 | 1016.2 |
| 20260905223928 | 28 | 122 | 6.4 | 14.5 | 0.00 | 0.00 | 0.00 | 71 | 1016.1 |
| 20260905223426 | 28 | 150 | 4.8 | 20.9 | 0.00 | 0.00 | 0.00 | 72 | 1016.1 |
| 20260905222921 | 28 | 65 | 4.8 | 9.7 | 0.00 | 0.00 | 0.00 | 71 | 1016.2 |
| 20260905222420 | 28 | 43 | 6.4 | 14.5 | 0.00 | 0.00 | 0.00 | 71 | 1015.9 |
| 20260905221916 | 28 | 68 | 3.2 | 12.9 | 0.00 | 0.00 | 0.00 | 72 | 1016.1 |
| 20260905221413 | 28 | 105 | 6.4 | 12.9 | 0.00 | 0.00 | 0.00 | 72 | 1016.1 |
| 20260905220909 | 28 | 58 | 6.4 | 14.5 | 0.00 | 0.00 | 0.00 | 72 | 1016.1 |
| 20260905220404 | 28 | 63 | 9.7 | 24.1 | 0.00 | 0.00 | 0.00 | 72 | 1016.1 |
| 20260905215903 | 28 | 100 | 8.0 | 16.1 | 0.00 | 0.00 | 0.00 | 72 | 1016.1 |
| 20260905215359 | 28 | 95 | 4.8 | 17.7 | 0.00 | 0.00 | 0.00 | 73 | 1016.4 |
| 20260905214855 | 28 | 81 | 6.4 | 16.1 | 0.00 | 0.00 | 0.00 | 74 | 1016.3 |
| 20260905214351 | 28 | 159 | 6.4 | 11.3 | 0.00 | 0.00 | 0.00 | 72 | 1016.5 |
| 20260905213845 | 28 | 104 | 3.2 | 16.1 | 0.00 | 0.00 | 0.00 | 73 | 1016.5 |
| 20260905213341 | 28 | 123 | 8.0 | 14.5 | 0.00 | 0.00 | 0.00 | 73 | 1016.5 |
| 20260905212836 | 28 | 71 | 11.3 | 20.9 | 0.00 | 0.00 | 0.00 | 74 | 1016.6 |